Location: Stanford
(52.2833°N, 2.4333°W)
Time: 23:26:37
(UTC+00:00)

CZ-4C R/B - Pass Details

Date: 22 January 2021
Orbit: 617 x 1385 km, 63.4° (Epoch: 01 March)

Event Time Altitude Azimuth Distance (km) Brightness Sun altitude
Rises 18:14:07 0° 261° (W) 3,202 7.2 -14.2°
Reaches altitude 10° 18:16:28 10° 269° (W) 2,373 5.9 -14.6°
Maximum altitude 18:21:38 40° 339° (NNW) 1,327 3.3 -15.3°
Enters shadow 18:26:33 16° 42° (NE) 2,433 4.1 -16.1°
